Flag for Germany Weather past 2 weeks in Merzig, Saarland, Germany

Now
87 °F

Sunny.


Feels Like: 85 °F
Forecast: 64 / 92 °F
Wind: 3 mph from Northeast

Location: Trier-Petrisberg

Current Time: Jun 30, 2015 at 3:36:20 PM

Latest Report: Jun 30, 2015 at 3:00 PM


Visibility: 28 mi

Pressure: 30.08 "Hg

Humidity: 29%

Dew point: 51 °F

Location of MerzigLocation

Historic Weather in Merzig — Graph

°F

Merzig temperature yesterday

Maximum temperature yesterday: 82 °F (at 5:00 PM)
Minimum temperature yesterday: 60 °F (at 6:00 AM)
Average temperature yesterday: 71 °F

Past Weeks' High & Low Weather Summary

 TemperatureHumidityPressure
High83 °F (Jun 30, 2:00 PM)100% (Jun 18, 9:00 AM)30.31 "Hg (Jun 18, 9:00 AM)
Low46 °F (Jun 17, 5:00 AM)27% (Jun 29, 6:00 PM)29.72 "Hg (Jun 22, 10:00 PM)
Average62 °F69%30.10 "Hg
* Reported Jun 15 2:00 PM — Jun 30 2:00 PM, Merzig, Weather by CustomWeather, © 2015

Note: Actual official high and low records may vary slightly from our data, if they occured in-between our weather recording intervals... More about our weather records

Advertising

Merzig weather history for previous 24 hours

 ConditionsComfort  
Time TempWeatherWind HumidityBarometerVisibility
2:00 PM
Tue, Jun 30
83 °FSunny.3 mph34%30.10 "Hg28 mi
1:00 PM82 °FSunny.5 mph39%30.12 "Hg25 mi
12:00 PM78 °FSunny.3 mph45%30.13 "Hg22 mi
11:00 AM75 °FSunny.3 mph55%30.15 "Hg12 mi
10:00 AM71 °FSunny.2 mph62%30.17 "Hg12 mi
9:00 AM66 °FPassing clouds.2 mph74%30.18 "Hg12 mi
8:00 AM62 °FPassing clouds.3 mph81%30.18 "Hg9 mi
7:00 AM57 °FPassing clouds.2 mph92%30.19 "Hg9 mi
6:00 AM56 °FPassing clouds.3 mph92%30.18 "Hg9 mi
5:00 AM57 °FClear.3 mph92%30.18 "Hg11 mi
4:00 AM59 °FClear.2 mph87%30.18 "Hg15 mi
3:00 AM61 °FClear.3 mph80%30.19 "Hg16 mi
2:00 AM62 °FClear.2 mph79%30.19 "Hg16 mi
1:00 AM64 °FClear.2 mph76%30.19 "Hg19 mi
12:00 AM66 °FClear.5 mph68%30.19 "Hg22 mi
11:00 PM
Mon, Jun 29
69 °FPassing clouds.5 mph57%30.18 "Hg22 mi
10:00 PM71 °FPassing clouds.3 mph51%30.17 "Hg31 mi
9:00 PM75 °FPassing clouds.2 mph40%30.14 "Hg31 mi
8:00 PM78 °FSunny.3 mph34%30.12 "Hg34 mi
7:00 PM81 °FSunny.3 mph27%30.11 "Hg28 mi
6:00 PM81 °FSunny.5 mph27%30.11 "Hg31 mi
5:00 PM82 °FPartly sunny.2 mph35%30.10 "Hg25 mi
4:00 PM82 °FPartly sunny.3 mph35%30.11 "Hg25 mi
3:00 PM79 °FPartly sunny.3 mph44%30.11 "Hg25 mi
Weather by CustomWeather, © 2015

See weather overviewHow to use our weather pages